Weather History for New York JFK, NY

Change the Weather History Date:

Tuesday, December 31, 2013

  Actual Average Record
Temperature  
Mean Temperature 28 °F 34 °F  
Max Temperature 34 °F 40 °F 56 °F (1965)
Min Temperature 21 °F 28 °F 5 °F (1962)
Degree Days  
Heating Degree Days 37 31  
Month to date heating degree days 828 846  
Since 1 July heating degree days 1642 1669  
Cooling Degree Days 0 0  
Month to date cooling degree days 0 0  
Year to date cooling degree days 1111 1005  
Moisture  
Dew Point 11 °F    
Average Humidity 49    
Maximum Humidity 59    
Minimum Humidity 39    
Precipitation  
Precipitation T in 0.10 in 1.92 in (1948)
Month to date precipitation 4.50 3.39  
Year to date precipitation 35.48 42.77  
Snow  
Snow T in 0.20 in 2.60 in (1967)
Month to date snowfall 6.7 4.7  
Since 1 July snowfall 6.9 4.9  
Snow Depth 0.00 in    
Sea Level Pressure  
Sea Level Pressure 30.18 in    
Wind  
Wind Speed 12 mph (WNW)    
Max Wind Speed 26 mph    
Max Gust Speed 37 mph    
Visibility 10 miles    
Events Snow    
T = Trace of Precipitation, MM = Missing Value Source: NWS Daily Summary

Daily Weather History Graph

Daily Weather History Graph

Search for Another Location

Airport:

Trip Planner

Search our weather history database for the weather conditions in past years. The results will help you decide how hot, cold, wet, or windy it might be!

Date:

Astronomy

Dec. 31, 2013 Rise Set
Actual Time 7:18 AM EST 4:37 PM EST
Civil Twilight 6:47 AM EST 5:08 PM EST
Nautical Twilight 6:13 AM EST 5:42 PM EST
Astronomical Twilight 5:40 AM EST 6:16 PM EST
Moon 6:08 AM EST (12/31) 4:11 PM EST (12/31)
Length of Visible Light 10h 20m
Length of Day
9h 19m
Waning Crescent, 1% of the Moon is Illuminated
Dec 31
Waning Crescent
Jan 1
New
Jan 7
First Quarter
Jan 15
Full
Jan 24
Last Quarter

Hourly Weather History & Observations

Time (EST) Temp. Windchill Dew Point Humidity Pressure Visibility Wind Dir Wind Speed Gust Speed Precip Events Conditions
12:51 AM 23.0 °F 10.6 °F 5.0 °F 46% 30.20 in 10.0 mi NNW 13.8 mph - N/A   Partly Cloudy
1:51 AM 21.9 °F 11.0 °F 6.1 °F 51% 30.20 in 10.0 mi North 10.4 mph - N/A   Scattered Clouds
2:51 AM 23.0 °F 14.7 °F 7.0 °F 50% 30.19 in 10.0 mi North 6.9 mph - N/A   Mostly Cloudy
3:51 AM 23.0 °F 15.8 °F 9.0 °F 55% 30.19 in 10.0 mi NNE 5.8 mph - N/A   Overcast
4:51 AM 23.0 °F 14.7 °F 7.0 °F 50% 30.18 in 10.0 mi North 6.9 mph - N/A   Overcast
5:51 AM 23.0 °F 15.8 °F 8.1 °F 53% 30.18 in 10.0 mi North 5.8 mph - N/A   Overcast
6:51 AM 21.9 °F 15.7 °F 8.1 °F 55% 30.18 in 10.0 mi NNE 4.6 mph - N/A   Scattered Clouds
7:51 AM 23.0 °F 18.4 °F 9.0 °F 55% 30.16 in 10.0 mi NE 3.5 mph - N/A   Mostly Cloudy
8:51 AM 24.1 °F - 9.0 °F 53% 30.17 in 10.0 mi Calm Calm - N/A   Mostly Cloudy
9:51 AM 26.1 °F - 10.0 °F 51% 30.17 in 10.0 mi Calm Calm - N/A   Scattered Clouds
10:51 AM 28.0 °F 24.2 °F 12.9 °F 53% 30.15 in 10.0 mi SSW 3.5 mph - N/A   Mostly Cloudy
11:51 AM 28.9 °F 17.7 °F 12.9 °F 51% 30.13 in 10.0 mi WSW 15.0 mph - N/A   Mostly Cloudy
12:51 PM 32.0 °F 22.1 °F 14.0 °F 48% 30.10 in 10.0 mi West 13.8 mph 18.4 mph N/A   Mostly Cloudy
1:51 PM 33.1 °F 23.4 °F 15.1 °F 48% 30.09 in 10.0 mi WSW 13.8 mph - N/A   Mostly Cloudy
2:51 PM 33.1 °F 23.4 °F 17.1 °F 52% 30.09 in 10.0 mi WSW 13.8 mph - N/A   Mostly Cloudy
3:51 PM 33.1 °F 21.9 °F 21.0 °F 61% 30.12 in 9.0 mi West 18.4 mph - 0.00 in Snow Light Snow
4:51 PM 33.1 °F 21.2 °F 19.9 °F 59% 30.13 in 10.0 mi West 20.7 mph 29.9 mph 0.00 in   Scattered Clouds
5:51 PM 32.0 °F 19.8 °F 19.0 °F 59% 30.15 in 10.0 mi West 20.7 mph 27.6 mph N/A   Partly Cloudy
6:51 PM 32.0 °F 20.8 °F 18.0 °F 56% 30.19 in 10.0 mi West 17.3 mph 27.6 mph N/A   Partly Cloudy
7:51 PM 32.0 °F 20.1 °F 12.0 °F 44% 30.22 in 10.0 mi West 19.6 mph 28.8 mph N/A   Scattered Clouds
8:51 PM 30.0 °F 17.9 °F 10.9 °F 45% 30.24 in 10.0 mi WNW 18.4 mph 24.2 mph N/A   Scattered Clouds
9:51 PM 28.9 °F 16.9 °F 10.0 °F 45% 30.27 in 10.0 mi West 17.3 mph 23.0 mph N/A   Scattered Clouds
10:51 PM 28.0 °F 15.7 °F 6.1 °F 39% 30.28 in 10.0 mi WNW 17.3 mph 24.2 mph N/A   Clear
11:51 PM 27.0 °F 14.3 °F 5.0 °F 39% 30.30 in 10.0 mi West 17.3 mph - N/A   Clear